Inver Grove Heights, MN

9:56 AM CST on February 27, 2017 (GMT -0600)
South Saint Paul Municipal-Fleming

Weather History for KSGS - April, 2014

Change the Weather History Date:

Tuesday, April 22, 2014

  Actual Average (KSTP) Record (KSTP)
Temperature  
Mean Temperature 50 °F -  
Max Temperature 60 °F 59 °F 79 °F (2007)
Min Temperature 40 °F 38 °F 32 °F (2002)
Degree Days  
Heating Degree Days 15    
Moisture  
Dew Point 28 °F    
Average Humidity 43    
Maximum Humidity 66    
Minimum Humidity 25    
Precipitation  
Precipitation 0.00 in - - ()
Sea Level Pressure  
Sea Level Pressure 30.09 in    
Wind  
Wind Speed 8 mph (North)    
Max Wind Speed 17 mph    
Max Gust Speed 22 mph    
Visibility 10 miles    
Events      
Averages and records for this station are not official NWS values.
T = Trace of Precipitation, MM = Missing Value Source: NWS Daily Summary

Daily Weather History Graph

Daily Weather History Graph

Search for Another Location

Airport or City:

Trip Planner

Search our weather history database for the weather conditions in past years. The results will help you decide how hot, cold, wet, or windy it might be!

Date:

Astronomy

Apr. 22, 2014 Rise Set
Actual Time 6:15 AM CDT 8:06 PM CDT
Civil Twilight 5:44 AM CDT 8:37 PM CDT
Nautical Twilight 5:06 AM CDT 9:15 PM CDT
Astronomical Twilight 4:24 AM CDT 9:57 PM CDT
Moon 2:23 AM CDT (4/22) 12:50 PM CDT (4/22)
Length of Visible Light 14h 53m
Length of Day
13h 50m
Last Quarter, 46% of the Moon is Illuminated
Apr 22
Last Quarter
Apr 29
New
May 6
First Quarter
May 14
Full
May 21
Last Quarter

Hourly Weather History & Observations

Time (CDT) Temp. Windchill Dew Point Humidity Pressure Visibility Wind Dir Wind Speed Gust Speed Precip Events Conditions
12:12 AM 48.0 °F - 29.1 °F 48% 30.08 in 10.0 mi NNW 9.2 mph - N/A   Clear
12:32 AM 47.3 °F - 29.3 °F 50% 30.08 in 10.0 mi NNW 8.1 mph - N/A   Clear
12:52 AM 46.6 °F - 29.3 °F 51% 30.08 in 10.0 mi NNW 5.8 mph - N/A   Clear
1:12 AM 46.4 °F 44.3 °F 29.3 °F 51% 30.09 in 10.0 mi NNW 4.6 mph - N/A   Clear
1:32 AM 45.5 °F 43.2 °F 29.8 °F 54% 30.09 in 10.0 mi NW 4.6 mph - N/A   Clear
1:52 AM 45.1 °F 41.4 °F 30.0 °F 55% 30.08 in 10.0 mi NW 6.9 mph - N/A   Clear
2:12 AM 45.7 °F 42.0 °F 30.0 °F 54% 30.09 in 10.0 mi NW 6.9 mph - N/A   Clear
2:32 AM 45.9 °F 41.7 °F 29.8 °F 54% 30.09 in 10.0 mi NW 8.1 mph - N/A   Clear
2:52 AM 45.5 °F 43.2 °F 30.0 °F 55% 30.09 in 10.0 mi NW 4.6 mph - N/A   Clear
3:11 AM 45.3 °F 42.3 °F 30.2 °F 56% 30.09 in 10.0 mi NW 5.8 mph - N/A   Clear
3:32 AM 44.6 °F 40.7 °F 30.6 °F 58% 30.09 in 10.0 mi NNW 6.9 mph - N/A   Clear
3:52 AM 44.4 °F 38.6 °F 30.7 °F 59% 30.10 in 10.0 mi NNW 11.5 mph - N/A   Clear
4:12 AM 44.8 °F 41.6 °F 30.6 °F 57% 30.10 in 10.0 mi North 5.8 mph - N/A   Clear
4:32 AM 43.9 °F 39.9 °F 30.2 °F 59% 30.10 in 10.0 mi North 6.9 mph - N/A   Clear
4:52 AM 43.3 °F 39.9 °F 30.2 °F 60% 30.10 in 10.0 mi North 5.8 mph - N/A   Clear
5:12 AM 42.3 °F 39.4 °F 30.2 °F 62% 30.11 in 10.0 mi North 4.6 mph - N/A   Clear
5:32 AM 41.9 °F 39.0 °F 30.2 °F 63% 30.11 in 10.0 mi NNW 4.6 mph - N/A   Clear
5:52 AM 40.6 °F 36.7 °F 30.0 °F 66% 30.12 in 10.0 mi NW 5.8 mph - N/A   Clear
6:12 AM 40.6 °F 36.7 °F 29.5 °F 64% 30.12 in 10.0 mi NW 5.8 mph - N/A   Clear
6:32 AM 40.5 °F 37.3 °F 29.3 °F 64% 30.12 in 10.0 mi NNW 4.6 mph - N/A   Clear
6:52 AM 41.5 °F 36.4 °F 28.2 °F 59% 30.11 in 10.0 mi North 8.1 mph - N/A   Clear
7:12 AM 42.1 °F 37.1 °F 28.0 °F 58% 30.12 in 10.0 mi NNW 8.1 mph - N/A   Clear
7:31 AM 42.8 °F 38.0 °F 27.7 °F 55% 30.12 in 10.0 mi North 8.1 mph - N/A   Clear
7:52 AM 43.7 °F 38.6 °F 27.5 °F 53% 30.12 in 10.0 mi North 9.2 mph - N/A   Clear
8:12 AM 44.4 °F 40.0 °F 27.3 °F 51% 30.13 in 10.0 mi North 8.1 mph - N/A   Clear
8:32 AM 45.0 °F 39.3 °F 26.6 °F 49% 30.13 in 10.0 mi North 11.5 mph - N/A   Clear
8:52 AM 46.4 °F 40.7 °F 27.0 °F 47% 30.13 in 10.0 mi North 12.7 mph 16.1 mph N/A   Clear
9:12 AM 47.3 °F - 27.5 °F 46% 30.13 in 10.0 mi North 11.5 mph - N/A   Clear
9:32 AM 47.7 °F - 27.0 °F 45% 30.13 in 10.0 mi NNW 10.4 mph 17.3 mph N/A   Clear
9:52 AM 48.6 °F - 27.1 °F 43% 30.13 in 10.0 mi North 12.7 mph - N/A   Clear
10:12 AM 49.1 °F - 26.6 °F 42% 30.13 in 10.0 mi North 11.5 mph - N/A   Clear
10:32 AM 49.8 °F - 27.0 °F 41% 30.13 in 10.0 mi North 12.7 mph 17.3 mph N/A   Clear
10:52 AM 50.9 °F - 27.1 °F 40% 30.12 in 10.0 mi North 15.0 mph 20.7 mph N/A   Clear
11:11 AM 52.2 °F - 27.5 °F 39% 30.13 in 10.0 mi NNW 12.7 mph 18.4 mph N/A   Clear
11:32 AM 52.9 °F - 27.7 °F 38% 30.13 in 10.0 mi North 13.8 mph 20.7 mph N/A   Clear
11:52 AM 54.1 °F - 27.7 °F 36% 30.13 in 10.0 mi North 11.5 mph 20.7 mph N/A   Clear
12:12 PM 54.5 °F - 29.1 °F 38% 30.12 in 10.0 mi North 11.5 mph 18.4 mph N/A   Clear
12:32 PM 55.2 °F - 28.9 °F 37% 30.11 in 10.0 mi North 17.3 mph 21.9 mph N/A   Clear
12:52 PM 55.4 °F - 28.9 °F 36% 30.11 in 10.0 mi North 13.8 mph 18.4 mph N/A   Clear
1:12 PM 56.8 °F - 29.1 °F 35% 30.10 in 10.0 mi NW 12.7 mph 17.3 mph N/A   Clear
1:32 PM 57.2 °F - 28.9 °F 34% 30.10 in 10.0 mi North 17.3 mph 21.9 mph N/A   Clear
1:52 PM 57.9 °F - 28.4 °F 32% 30.09 in 10.0 mi NW 10.4 mph 17.3 mph N/A   Clear
2:12 PM 57.7 °F - 28.2 °F 32% 30.09 in 10.0 mi North 11.5 mph 17.3 mph N/A   Clear
2:32 PM 59.0 °F - 28.8 °F 32% 30.08 in 10.0 mi North 15.0 mph 20.7 mph N/A   Clear
2:52 PM 59.2 °F - 28.4 °F 31% 30.08 in 10.0 mi NW 8.1 mph 16.1 mph N/A   Clear
3:12 PM 58.5 °F - 27.1 °F 30% 30.07 in 10.0 mi NNW 10.4 mph 18.4 mph N/A   Clear
3:32 PM 59.0 °F - 27.9 °F 31% 30.07 in 10.0 mi North 9.2 mph - N/A   Clear
3:52 PM 59.5 °F - 25.7 °F 27% 30.06 in 10.0 mi NNE 12.7 mph 17.3 mph N/A   Clear
4:12 PM 59.2 °F - 26.1 °F 28% 30.06 in 10.0 mi North 11.5 mph 17.3 mph N/A   Clear
4:32 PM 59.4 °F - 25.5 °F 27% 30.05 in 10.0 mi North 12.7 mph 17.3 mph N/A   Clear
4:52 PM 60.3 °F - 25.3 °F 26% 30.05 in 10.0 mi NNW 11.5 mph 19.6 mph N/A   Clear
5:12 PM 59.0 °F - 24.1 °F 26% 30.05 in 10.0 mi NNE 8.1 mph - N/A   Clear
5:32 PM 58.3 °F - 24.3 °F 27% 30.05 in 10.0 mi North 6.9 mph - N/A   Clear
5:52 PM 58.6 °F - 25.5 °F 28% 30.05 in 10.0 mi North 6.9 mph - N/A   Clear
6:12 PM 59.0 °F - 25.2 °F 27% 30.05 in 10.0 mi North 10.4 mph - N/A   Clear
6:32 PM 58.8 °F - 25.9 °F 28% 30.05 in 10.0 mi North 6.9 mph - N/A   Clear
6:52 PM 58.1 °F - 24.1 °F 27% 30.04 in 10.0 mi NE 3.5 mph - N/A   Clear
7:12 PM 57.7 °F - 24.3 °F 28% 30.05 in 10.0 mi NE 3.5 mph - N/A   Clear
7:32 PM 57.2 °F - 23.5 °F 27% 30.05 in 10.0 mi NE 4.6 mph - N/A   Clear
7:52 PM 56.7 °F - 21.2 °F 25% 30.05 in 10.0 mi NNE 3.5 mph - N/A   Clear
8:12 PM 55.8 °F - 21.9 °F 27% 30.05 in 10.0 mi Calm Calm - N/A   Clear
8:32 PM 55.6 °F - 22.1 °F 27% 30.06 in 10.0 mi Calm Calm - N/A   Clear
8:52 PM 55.0 °F - 21.7 °F 27% 30.07 in 10.0 mi Calm Calm - N/A   Clear
9:12 PM 53.1 °F - 23.5 °F 32% 30.08 in 10.0 mi Calm Calm - N/A   Clear
9:32 PM 52.0 °F - 23.2 °F 33% 30.08 in 10.0 mi Calm Calm - N/A   Clear
9:52 PM 48.9 °F - 30.4 °F 49% 30.09 in 10.0 mi Calm Calm - N/A   Clear
10:12 PM 48.6 °F - 27.9 °F 45% 30.09 in 10.0 mi Calm Calm - N/A   Clear
10:32 PM 49.3 °F - 27.3 °F 43% 30.09 in 10.0 mi Calm Calm - N/A   Clear
10:52 PM 46.9 °F - 28.8 °F 49% 30.09 in 10.0 mi Calm Calm - N/A   Clear
11:12 PM 47.8 °F - 26.4 °F 43% 30.09 in 10.0 mi East 3.5 mph - N/A   Clear
11:32 PM 46.9 °F - 30.7 °F 53% 30.08 in 10.0 mi Calm Calm - N/A   Clear
11:52 PM 46.4 °F - 29.7 °F 52% 30.09 in 10.0 mi Calm Calm - N/A   Clear